Wind_Speed
3 3 3 3 4 4 4 4 4 4 4 3 3 2 2 2 2 1 1 1 2 2 2 2 2 2 2 2 1 1 1 1 0 0 1 1 2 2 3 3 3 3 4
3 3 3 4 4 4 4 4 4 4 4 4 3 3 2 3 3 2 2 2 2 2 2 2 2 3 3 3 2 2 2 2 1 1 1 2 2 3 3 3 3 4 4
3 4 4 4 4 4 4 4 4 4 4 3 3 4 4 3 3 4 3 3 3 2 2 3 3 3 3 3 3 3 3 2 2 2 2 2 2 3 3 3 3 4 5
4 5 5 5 4 4 4 4 4 5 5 4 4 4 5 4 4 4 4 3 3 2 3 3 3 3 3 4 4 4 4 3 3 3 3 3 3 3 4 4 5 5 5
5 5 5 5 5 5 4 5 5 5 4 4 5 5 5 4 4 5 4 4 4 4 3 3 3 4 4 4 4 4 4 4 4 4 4 4 4 4 5 5 5 5 6
6 5 5 5 5 5 5 5 5 5 4 5 5 5 5 5 5 5 5 5 5 5 5 5 4 4 4 5 4 5 5 5 5 5 5 5 6 5 5 5 5 6 6
5 4 5 5 5 5 5 6 6 5 5 5 5 5 5 5 5 6 5 5 5 5 6 6 5 5 6 6 5 5 5 6 6 6 6 6 7 7 7 7 7 7 7
5 5 5 6 6 6 6 6 6 5 5 5 5 5 5 5 5 5 5 5 6 5 6 6 6 6 6 6 6 6 6 6 7 7 7 7 7 7 8 8 8 7 8
6 6 6 6 7 7 6 5 5 5 5 5 5 5 5 5 6 6 6 6 6 6 6 7 7 7 7 7 7 7 7 7 7 8 8 8 9 9 9 9 9 9 9
7 8 8 7 8 8 6 6 5 5 5 5 5 5 6 6 6 7 7 7 7 7 7 8 8 8 8 8 9 9 9 8 9 9 10 10 10 10 10 10 10 11 11
8 8 8 8 8 7 6 6 5 6 6 6 6 7 7 7 7 8 8 8 8 8 8 9 9 9 10 10 10 10 10 10 10 10 11 11 11 12 12 12 12 12 12
8 8 9 8 8 7 7 7 7 7 7 7 7 7 8 8 8 8 9 9 9 9 9 10 10 10 11 11 11 11 11 11 11 11 12 12 13 13 13 13 13 13 13
9 9 9 9 9 8 8 7 7 8 8 8 8 8 8 8 9 9 9 9 10 10 10 10 11 12 12 12 12 13 13 12 12 12 13 13 14 14 14 14 15 15 15
9 10 9 9 9 9 9 8 8 9 8 8 9 9 10 10 9 9 10 10 10 11 11 11 12 12 12 13 14 14 14 14 14 14 14 14 15 15 15 16 16 16 16
9 9 9 10 10 9 9 9 9 9 9 9 10 10 10 10 11 10 11 11 11 12 12 12 13 13 13 13 14 15 16 16 16 16 16 16 16 17 17 17 18 18 18
10 10 9 9 8 8 9 9 9 9 10 10 11 11 11 11 12 12 12 12 13 13 13 13 13 13 14 15 15 15 16 17 17 17 17 18 19 19 19 20 20 20 20
11 10 9 8 8 8 9 9 9 10 10 10 11 11 11 11 12 12 13 13 14 14 14 14 14 14 15 16 16 16 17 18 19 19 19 20 20 20 21 21 22 22 23
11 10 9 8 9 9 10 10 10 10 11 11 11 11 11 11 11 12 13 14 15 15 15 15 15 16 16 17 17 18 19 19 20 21 21 21 21 22 23 24 24 25 26
10 10 10 10 10 11 11 11 11 10 11 11 11 11 11 12 13 13 14 15 15 16 16 16 16 17 17 18 19 20 20 21 22 22 22 23 24 25 26 26 27 28 28
11 11 12 12 12 12 12 12 11 11 12 12 12 12 13 13 13 14 14 15 16 16 16 17 17 17 18 19 20 20 21 22 23 24 24 25 26 27 28 29 29 30 30
12 12 13 13 13 12 12 13 12 13 13 13 13 13 13 13 13 14 14 15 16 17 17 17 18 18 19 21 22 23 23 23 24 25 26 27 27 28 29 30 31 32 32
12 12 12 13 13 13 13 13 13 14 14 14 15 15 15 15 15 16 16 17 17 18 18 19 20 20 21 22 23 24 24 24 25 26 27 27 28 28 29 30 31 32 33
12 13 13 14 13 14 14 14 14 15 15 14 15 16 16 16 17 18 18 19 19 19 20 22 23 23 24 24 25 26 26 27 27 28 29 29 30 30 31 32 33 33 33
13 13 14 14 13 14 15 15 15 16 16 16 16 16 17 18 19 19 20 21 21 21 22 23 23 24 24 25 25 25 27 27 29 30 30 31 32 32 33 34 34 34 34
14 15 14 15 14 15 15 16 16 17 17 17 17 18 19 20 20 20 20 21 22 22 24 25 23 24 25 27 27 28 28 30 30 31 32 32 33 33 34 35 34 35 36
16 16 16 16 15 16 17 17 17 17 17 18 19 19 20 21 21 21 21 22 22 23 24 25 25 25 26 28 28 29 30 31 32 32 33 33 34 35 36 36 36 37 38
Wind_Direction
356 350 353 350 343 346 345 342 340 340 335 327 319 321 331 323 317 313 286 260 263 281 277 265 275 292 284 291 305 315 319 316 341 173 192 213 225 223 226 225 233 240 240
347 339 337 334 329 330 328 327 325 325 322 313 309 302 293 295 300 299 283 266 274 276 279 280 285 284 271 273 289 288 302 303 290 283 263 255 250 254 251 246 240 243 242
335 333 329 321 313 313 315 322 318 318 313 303 302 293 285 282 290 292 275 270 273 285 279 276 275 278 277 279 285 280 283 304 292 280 272 264 266 259 256 254 251 249 251
321 324 327 319 307 308 306 308 307 308 305 295 293 290 286 277 281 280 266 264 266 274 278 269 269 276 282 276 275 274 276 281 278 275 268 270 272 264 262 271 265 255 253
320 323 322 324 316 305 296 297 296 300 303 296 293 289 283 279 277 274 262 263 264 263 265 264 271 279 281 279 275 271 270 270 273 273 266 265 265 265 270 271 270 267 257
320 322 325 326 320 309 300 298 292 287 292 293 290 289 284 276 269 270 268 266 263 262 265 266 269 273 275 283 283 274 265 267 270 267 264 266 265 265 266 268 271 276 272
321 320 322 322 317 311 302 300 291 289 289 285 282 284 284 278 269 270 269 264 261 264 265 267 266 268 270 273 272 274 270 271 272 268 266 268 266 266 267 268 271 275 276
314 309 315 316 315 313 305 297 293 292 292 289 283 281 279 271 269 265 271 269 264 263 270 272 267 268 268 265 264 267 271 268 268 270 268 268 266 267 268 270 272 273 273
298 300 303 311 314 309 304 298 287 280 279 283 285 277 273 270 267 270 267 273 269 267 270 271 267 266 267 265 262 265 269 270 269 271 268 267 267 269 270 269 269 269 272
294 294 300 306 312 308 299 291 285 273 278 276 273 268 272 271 273 271 267 269 270 267 265 267 267 267 269 268 262 264 269 271 269 268 269 267 268 269 268 269 271 270 270
289 292 296 299 301 305 298 286 284 272 273 273 271 272 273 272 271 267 266 268 270 268 266 263 265 268 269 270 266 266 268 270 271 271 270 268 267 268 268 270 273 273 271
289 289 294 296 298 300 296 287 279 277 277 274 272 277 278 276 272 269 265 267 270 270 272 268 267 268 270 271 269 268 270 272 271 272 271 268 269 270 269 271 272 274 273
286 287 289 291 295 292 289 286 282 282 283 277 275 279 280 278 273 271 267 267 270 273 274 272 272 271 270 271 272 270 271 271 271 271 273 272 270 270 271 271 271 272 272
292 291 287 288 292 289 286 281 279 280 281 280 281 281 280 279 275 270 265 265 267 270 271 274 276 275 274 272 271 270 271 271 273 273 273 273 272 271 271 272 272 272 273
291 294 290 285 286 289 286 282 282 282 282 287 285 282 280 278 274 267 266 264 267 267 269 274 278 277 276 277 275 275 273 273 273 274 273 272 273 272 273 274 273 272 273
292 292 291 288 286 289 287 281 281 283 284 287 287 284 283 277 271 268 267 267 268 271 270 276 279 278 280 279 278 277 276 274 273 273 274 275 274 274 274 274 275 274 273
291 286 286 284 288 290 290 288 283 283 285 287 285 283 282 280 276 272 270 269 271 272 272 276 280 279 280 281 278 278 278 278 276 275 275 276 277 276 276 276 276 276 276
290 284 281 281 285 285 286 288 289 285 284 284 283 280 281 280 281 277 274 275 274 274 275 276 279 281 282 284 284 283 281 278 279 278 277 276 275 277 278 277 276 276 277
291 283 283 280 279 281 283 284 284 285 284 284 285 283 283 283 281 281 281 280 277 277 277 278 281 283 283 282 284 285 282 281 280 279 278 277 277 278 279 278 278 278 277
285 282 282 280 279 278 278 281 283 283 284 286 285 284 284 284 283 284 285 285 283 283 283 284 284 284 286 285 286 287 284 283 282 281 279 279 279 279 281 280 279 279 279
284 280 280 278 278 279 279 281 282 283 282 285 286 288 288 286 285 286 288 288 288 285 284 284 286 285 285 285 284 284 282 282 281 284 283 282 281 280 279 281 281 280 280
286 278 282 283 282 282 284 284 284 287 286 283 285 286 288 286 286 286 286 287 287 287 288 287 285 285 285 286 285 284 284 284 283 284 283 282 282 283 281 281 282 281 281
298 293 290 286 283 283 286 284 282 283 285 287 286 286 287 287 287 287 286 286 287 287 288 288 283 283 284 284 284 285 285 285 284 286 285 283 285 284 283 283 283 283 282
302 302 296 289 287 286 286 283 282 283 284 286 287 286 286 287 289 288 286 286 286 288 289 289 286 285 286 287 286 285 285 287 286 285 286 285 284 283 283 283 284 283 282
301 302 300 294 289 288 288 286 285 286 285 286 287 289 289 289 288 288 288 288 287 288 289 288 288 289 288 288 287 287 287 287 287 287 286 286 284 283 283 283 283 283 282
293 294 296 294 292 291 289 288 290 289 287 287 288 290 291 291 289 289 289 290 290 290 291 290 289 291 291 291 290 289 288 288 288 287 286 286 284 283 283 283 283 282 281
Height
5910 5909 5909 5908 5907 5906 5905 5904 5904 5903 5902 5902 5901 5900 5899 5899 5898 5898 5898 5898 5897 5897 5897 5896 5896 5896 5895 5895 5894 5894 5893 5893 5892 5892 5891 5891 5891 5890 5890 5890 5890 5890 5890
5910 5909 5908 5907 5906 5906 5905 5904 5903 5903 5902 5901 5900 5900 5899 5899 5898 5898 5898 5897 5897 5896 5896 5896 5895 5895 5895 5894 5894 5893 5893 5892 5892 5891 5891 5891 5890 5890 5890 5889 5889 5889 5889
5909 5909 5908 5907 5906 5905 5904 5903 5903 5902 5901 5900 5900 5899 5899 5898 5898 5898 5897 5897 5896 5896 5895 5895 5895 5895 5894 5894 5893 5893 5892 5892 5891 5891 5891 5890 5890 5889 5889 5888 5888 5888 5888
5908 5908 5907 5906 5905 5904 5903 5902 5901 5901 5900 5899 5899 5899 5898 5897 5897 5897 5896 5896 5896 5895 5895 5895 5894 5894 5894 5893 5893 5892 5892 5891 5891 5890 5890 5889 5889 5888 5888 5888 5887 5887 5887
5907 5906 5905 5904 5903 5903 5902 5901 5900 5899 5899 5899 5898 5898 5897 5896 5896 5896 5895 5895 5895 5894 5894 5894 5894 5893 5893 5892 5892 5891 5891 5890 5890 5889 5889 5888 5888 5888 5887 5887 5886 5886 5885
5905 5905 5904 5903 5902 5902 5901 5900 5899 5898 5898 5898 5897 5897 5896 5896 5895 5894 5894 5894 5894 5894 5893 5893 5893 5892 5892 5891 5891 5890 5890 5889 5889 5888 5888 5887 5887 5886 5886 5885 5885 5884 5884
5904 5904 5903 5902 5901 5900 5900 5899 5898 5898 5897 5897 5896 5896 5895 5895 5894 5894 5893 5893 5893 5892 5892 5892 5891 5891 5890 5890 5890 5889 5889 5888 5888 5887 5887 5886 5886 5885 5885 5884 5883 5883 5883
5903 5902 5902 5901 5900 5899 5898 5898 5897 5896 5896 5896 5895 5894 5894 5894 5893 5893 5892 5892 5892 5891 5891 5890 5890 5889 5889 5889 5888 5888 5887 5887 5886 5886 5885 5885 5884 5884 5883 5882 5882 5881 5880
5902 5901 5900 5899 5898 5897 5897 5896 5896 5895 5895 5894 5894 5894 5893 5893 5892 5892 5892 5891 5890 5890 5889 5889 5888 5888 5887 5887 5887 5886 5886 5885 5885 5884 5883 5883 5882 5882 5881 5880 5880 5879 5878
5900 5899 5898 5897 5897 5895 5895 5894 5894 5894 5893 5893 5892 5892 5892 5891 5891 5890 5890 5889 5889 5888 5888 5887 5887 5886 5886 5885 5885 5884 5884 5883 5883 5882 5881 5880 5880 5879 5879 5878 5877 5876 5876
5898 5897 5896 5896 5895 5894 5893 5892 5892 5892 5891 5891 5890 5890 5889 5889 5888 5888 5888 5887 5887 5886 5886 5885 5885 5884 5883 5883 5882 5882 5881 5881 5880 5879 5878 5878 5877 5876 5876 5875 5875 5874 5873
5896 5895 5894 5894 5893 5892 5891 5890 5890 5890 5889 5889 5888 5888 5887 5886 5886 5885 5885 5885 5884 5884 5883 5883 5882 5881 5881 5880 5880 5879 5879 5878 5877 5876 5875 5875 5874 5873 5873 5872 5871 5870 5869
5893 5892 5892 5892 5891 5890 5889 5889 5888 5888 5887 5886 5886 5885 5884 5884 5883 5883 5882 5882 5882 5882 5881 5880 5879 5879 5878 5877 5877 5876 5875 5875 5874 5873 5872 5872 5871 5870 5869 5868 5867 5866 5866
5891 5890 5890 5889 5888 5888 5887 5886 5886 5885 5884 5883 5883 5882 5881 5881 5880 5880 5879 5879 5879 5878 5878 5877 5876 5875 5875 5874 5873 5872 5872 5871 5870 5869 5869 5868 5867 5866 5865 5864 5863 5862 5862
5888 5888 5887 5887 5886 5885 5885 5884 5883 5882 5882 5881 5880 5879 5878 5877 5877 5876 5876 5876 5876 5875 5875 5874 5873 5872 5871 5870 5869 5868 5868 5867 5866 5865 5865 5864 5863 5862 5861 5860 5859 5858 5857
5886 5886 5885 5884 5883 5883 5882 5881 5880 5879 5878 5878 5877 5876 5875 5874 5873 5873 5873 5872 5872 5872 5871 5871 5870 5869 5867 5866 5865 5864 5863 5863 5862 5860 5860 5859 5858 5857 5856 5855 5853 5852 5851
5884 5884 5883 5882 5881 5880 5879 5878 5877 5876 5875 5875 5874 5873 5871 5871 5870 5869 5869 5869 5868 5868 5867 5866 5865 5864 5863 5862 5861 5860 5859 5858 5856 5856 5855 5854 5852 5851 5850 5849 5848 5846 5845
5881 5881 5880 5879 5878 5878 5877 5876 5875 5874 5873 5872 5870 5869 5868 5867 5866 5866 5865 5864 5864 5863 5863 5862 5861 5860 5859 5857 5856 5855 5854 5852 5851 5850 5849 5848 5846 5845 5844 5842 5841 5840 5838
5878 5877 5877 5876 5875 5875 5874 5872 5871 5870 5869 5868 5867 5865 5865 5864 5863 5862 5861 5860 5859 5859 5858 5857 5856 5855 5853 5852 5851 5849 5848 5847 5845 5844 5843 5841 5840 5838 5837 5835 5833 5832 5830
5875 5874 5873 5872 5872 5871 5870 5869 5868 5867 5866 5864 5863 5862 5861 5860 5859 5858 5857 5856 5855 5854 5853 5852 5851 5850 5848 5846 5845 5844 5842 5840 5839 5837 5836 5834 5832 5831 5829 5827 5825 5824 5822
5871 5870 5869 5868 5868 5867 5866 5865 5864 5863 5862 5860 5859 5858 5857 5856 5855 5854 5853 5851 5850 5849 5848 5847 5845 5844 5842 5841 5839 5837 5836 5834 5832 5830 5829 5827 5824 5822 5820 5818 5816 5814 5812
5867 5866 5865 5865 5864 5863 5862 5861 5860 5859 5858 5856 5855 5854 5853 5852 5850 5849 5848 5846 5845 5844 5842 5841 5840 5838 5836 5834 5833 5831 5829 5827 5825 5824 5820 5818 5816 5814 5811 5809 5807 5805 5803
5864 5863 5862 5861 5860 5859 5858 5857 5856 5855 5854 5853 5851 5850 5848 5847 5845 5844 5842 5841 5839 5837 5836 5835 5833 5831 5829 5827 5825 5823 5821 5819 5817 5815 5812 5809 5807 5805 5802 5800 5798 5796 5793
5860 5859 5857 5856 5856 5855 5854 5853 5851 5850 5849 5848 5847 5845 5844 5842 5840 5838 5836 5835 5833 5831 5829 5827 5826 5824 5822 5820 5817 5815 5813 5811 5808 5805 5803 5800 5798 5795 5793 5790 5788 5785 5783
5857 5855 5854 5853 5852 5851 5849 5848 5847 5845 5844 5843 5842 5840 5838 5837 5835 5832 5830 5828 5827 5824 5822 5819 5818 5816 5814 5812 5809 5807 5805 5802 5799 5796 5793 5791 5788 5786 5783 5780 5777 5774 5772
5853 5851 5850 5849 5847 5846 5845 5843 5842 5840 5839 5837 5836 5834 5833 5831 5828 5826 5824 5822 5820 5818 5815 5813 5810 5808 5806 5804 5801 5798 5796 5793 5790 5787 5784 5781 5778 5776 5773 5770 5767 5764 5761